Home > Weather > Koblenz > Past weeks

Flag for Germany Past Weather in Koblenz, Rhineland-Palatinate, Germany — Yesterday and Last 2 Weeks

Now
75 °F

Mild.


Feels Like: 78 °F
Forecast: 63 / 91 °F
Wind: 5 mph from West

Location: Buechel

Current Time: Aug 28, 2016 at 12:38:58 AM

Latest Report: Aug 27, 2016 at 11:20 PM


Visibility: 6 mi

Pressure: 30.04 "Hg

Humidity: 57%

Dew Point: 59 °F

Location of KoblenzLocation

Past Weather in Koblenz — Graph

°F

Koblenz Temperature Yesterday

Maximum temperature yesterday: 90 °F (at 2:20 PM)
Minimum temperature yesterday: 66 °F (at 6:20 AM)
Average temperature yesterday: 78 °F

High & Low Weather Summary for the Past Weeks

 TemperatureHumidityPressure
High90 °F (Aug 26, 3:20 PM)100% (Aug 13, 6:20 AM)30.39 "Hg (Aug 13, 6:20 AM)
Low52 °F (Aug 19, 6:20 AM)35% (Aug 25, 3:20 PM)29.83 "Hg (Aug 18, 6:20 AM)
Average66 °F70%30.11 "Hg
* Reported Aug 12 11:20 PM — Aug 27 11:20 PM, Koblenz, Weather by CustomWeather, © 2016

Note: Actual official high and low records may vary slightly from our data, if they occured in-between our weather recording intervals... More about our weather records

Advertising

Koblenz Weather History for the Previous 24 Hours

Scroll right to see more
 ConditionsComfort  
Time TempWeatherWind HumidityBarometerVisibility
11:20 PM
Sat, Aug 27
75 °FMild.5 mph57%30.04 "Hg6 mi
10:20 PM81 °FWarm.6 mph45%30.04 "Hg5 mi
9:20 PM81 °FWarm.5 mph48%30.04 "Hg6 mi
8:20 PM82 °FWarm.5 mph45%30.04 "HgN/A
7:20 PM84 °FWarm.3 mph43%30.04 "Hg6 mi
6:20 PM86 °FPleasantly warm.3 mph38%30.04 "HgN/A
5:20 PM84 °FPleasantly warm.7 mph37%30.07 "HgN/A
4:20 PM88 °FPleasantly warm.5 mph35%30.07 "HgN/A
3:20 PM90 °FHot.7 mph36%30.07 "HgN/A
2:20 PM90 °FHot.5 mph41%30.09 "HgN/A
1:20 PM86 °FWarm.5 mph46%30.09 "HgN/A
12:20 PM86 °FWarm.3 mph49%30.12 "Hg5 mi
11:20 AM81 °FWarm.5 mph62%30.12 "Hg4 mi
10:20 AM77 °FWarm.5 mph69%30.12 "Hg5 mi
9:20 AM73 °FMild.7 mph78%30.12 "Hg5 mi
8:20 AM70 °FMild.5 mph88%30.12 "Hg4 mi
7:20 AM66 °FMild.7 mph94%30.09 "Hg3 mi
6:20 AM66 °FMild.6 mph94%30.09 "Hg3 mi
5:20 AM70 °FMild.3 mph83%30.09 "Hg4 mi
4:20 AM70 °FMild.5 mph83%30.12 "Hg4 mi
3:20 AM72 °FMild.3 mph83%30.12 "Hg3 mi
2:20 AM72 °FMild.5 mph83%30.12 "Hg3 mi
1:20 AM73 °FMild.5 mph74%30.12 "Hg4 mi
12:20 AM75 °FMild.5 mph74%30.12 "Hg4 mi
Weather by CustomWeather, © 2016

See weather overviewHow to use our weather pages